Time,TemperatureF,DewpointF,PressureIn,WindDirection,WindDirectionDegrees,WindSpeedMPH,WindSpeedGustMPH,Humidity,HourlyPrecipIn,Conditions,Clouds,dailyrainin,SoftwareType,DateUTC
2013-02-04 00:01:00,23.4,16.0,29.92,NW,310,4.0,13.0,73,0.00,,,0.06,meteohub,2013-02-04 05:01:00,
2013-02-04 00:03:00,23.4,16.3,29.92,WNW,291,5.0,13.0,74,0.00,,,0.06,meteohub,2013-02-04 05:03:00,
2013-02-04 00:08:00,23.0,16.0,29.92,NW,307,5.0,12.0,74,0.00,,,0.00,meteohub,2013-02-04 05:08:00,
2013-02-04 00:13:00,22.8,15.4,29.92,NW,311,7.0,12.0,73,0.00,,,0.00,meteohub,2013-02-04 05:13:00,
2013-02-04 00:18:00,22.8,15.4,29.92,NW,311,4.0,12.0,73,0.00,,,0.00,meteohub,2013-02-04 05:18:00,
2013-02-04 00:23:00,22.6,15.3,29.93,NW,304,3.0,11.0,73,0.00,,,0.00,meteohub,2013-02-04 05:23:00,
2013-02-04 00:28:00,22.5,15.1,29.93,NW,315,5.0,16.0,73,0.00,,,0.00,meteohub,2013-02-04 05:28:00,
2013-02-04 00:33:00,22.3,14.9,29.93,NW,310,5.0,16.0,73,0.00,,,0.00,meteohub,2013-02-04 05:33:00,
2013-02-04 00:38:00,22.1,14.7,29.93,NW,306,4.0,16.0,73,0.00,,,0.00,meteohub,2013-02-04 05:38:00,
2013-02-04 00:43:00,21.9,14.5,29.93,NW,304,5.0,13.0,73,0.00,,,0.00,meteohub,2013-02-04 05:43:00,
2013-02-04 00:48:00,21.9,14.5,29.93,NW,318,5.0,13.0,73,0.00,,,0.00,meteohub,2013-02-04 05:48:00,
2013-02-04 00:54:00,21.7,14.4,29.94,NW,306,4.0,11.0,73,0.00,,,0.00,meteohub,2013-02-04 05:54:00,
2013-02-04 00:59:00,21.6,14.2,29.94,WNW,295,3.0,11.0,73,0.00,,,0.00,meteohub,2013-02-04 05:59:00,
2013-02-04 01:04:00,21.6,14.5,29.94,NW,312,1.0,11.0,74,0.00,,,0.00,meteohub,2013-02-04 06:04:00,
2013-02-04 01:09:00,21.4,14.4,29.94,WNW,288,2.0,8.0,74,0.00,,,0.00,meteohub,2013-02-04 06:09:00,
2013-02-04 01:14:00,21.2,14.2,29.94,NW,310,2.0,8.0,74,0.00,,,0.00,meteohub,2013-02-04 06:14:00,
2013-02-04 01:19:00,21.2,14.2,29.94,WNW,302,4.0,6.0,74,0.00,,,0.00,meteohub,2013-02-04 06:19:00,
2013-02-04 01:24:00,21.2,14.2,29.94,NW,315,2.0,6.0,74,0.00,,,0.00,meteohub,2013-02-04 06:24:00,
2013-02-04 01:29:00,21.4,14.0,29.94,NW,310,5.0,8.0,73,0.00,,,0.00,meteohub,2013-02-04 06:29:00,
2013-02-04 01:34:00,21.4,14.0,29.94,NW,306,2.0,10.0,73,0.00,,,0.00,meteohub,2013-02-04 06:34:00,
2013-02-04 01:39:00,21.4,14.0,29.94,NW,304,2.0,10.0,73,0.00,,,0.00,meteohub,2013-02-04 06:39:00,
2013-02-04 01:44:00,21.0,13.8,29.94,NW,305,2.0,10.0,73,0.00,,,0.00,meteohub,2013-02-04 06:44:00,
2013-02-04 01:49:00,20.8,13.6,29.94,NW,307,2.0,7.0,73,0.00,,,0.00,meteohub,2013-02-04 06:49:00,
2013-02-04 01:54:00,20.7,13.6,29.94,WNW,292,1.0,6.0,74,0.00,,,0.00,meteohub,2013-02-04 06:54:00,
2013-02-04 01:59:00,20.7,13.6,29.95,WNW,296,4.0,6.0,74,0.00,,,0.00,meteohub,2013-02-04 06:59:00,
2013-02-04 02:04:00,20.7,13.6,29.95,WNW,287,4.0,6.0,74,0.00,,,0.00,meteohub,2013-02-04 07:04:00,
2013-02-04 02:09:00,20.7,13.6,29.95,WNW,283,2.0,6.0,74,0.00,,,0.00,meteohub,2013-02-04 07:09:00,
2013-02-04 02:14:00,20.7,13.5,29.95,WNW,286,2.0,6.0,73,0.00,,,0.00,meteohub,2013-02-04 07:14:00,
2013-02-04 02:19:00,20.7,13.5,29.95,WNW,287,1.0,5.0,73,0.00,,,0.00,meteohub,2013-02-04 07:19:00,
2013-02-04 02:24:00,20.5,13.3,29.95,WNW,288,1.0,4.0,73,0.00,,,0.00,meteohub,2013-02-04 07:24:00,
2013-02-04 02:29:00,20.1,12.9,29.95,NW,311,2.0,4.0,73,0.00,,,0.00,meteohub,2013-02-04 07:29:00,
2013-02-04 02:34:00,19.9,12.9,29.96,WNW,298,2.0,4.0,74,0.00,,,0.00,meteohub,2013-02-04 07:34:00,
2013-02-04 02:39:00,19.9,12.7,29.96,WNW,301,5.0,5.0,73,0.00,,,0.00,meteohub,2013-02-04 07:39:00,
2013-02-04 02:44:00,19.9,12.7,29.96,WNW,292,1.0,6.0,73,0.00,,,0.00,meteohub,2013-02-04 07:44:00,
2013-02-04 02:49:00,20.1,12.6,29.96,West,278,3.0,6.0,72,0.00,,,0.00,meteohub,2013-02-04 07:49:00,
2013-02-04 02:54:00,20.3,12.7,29.96,West,281,4.0,6.0,72,0.00,,,0.00,meteohub,2013-02-04 07:54:00,
2013-02-04 02:59:00,20.5,12.6,29.96,WNW,288,3.0,9.0,71,0.00,,,0.00,meteohub,2013-02-04 07:59:00,
2013-02-04 03:04:00,20.5,12.2,29.96,WNW,285,3.0,9.0,70,0.00,,,0.00,meteohub,2013-02-04 08:04:00,
2013-02-04 03:09:00,20.5,12.2,29.96,WNW,283,2.0,9.0,70,0.00,,,0.00,meteohub,2013-02-04 08:09:00,
2013-02-04 03:14:00,20.3,12.4,29.96,WNW,292,3.0,6.0,71,0.00,,,0.00,meteohub,2013-02-04 08:14:00,
2013-02-04 03:19:00,20.1,12.2,29.96,West,275,1.0,4.0,71,0.00,,,0.00,meteohub,2013-02-04 08:19:00,
2013-02-04 03:25:00,19.9,12.0,29.96,NW,306,0.0,6.0,71,0.00,,,0.00,meteohub,2013-02-04 08:25:00,
2013-02-04 03:30:00,19.9,12.0,29.97,WNW,289,2.0,6.0,71,0.00,,,0.00,meteohub,2013-02-04 08:30:00,
2013-02-04 03:35:00,19.8,11.8,29.97,WNW,285,1.0,6.0,71,0.00,,,0.00,meteohub,2013-02-04 08:35:00,
2013-02-04 03:40:00,19.8,12.2,29.97,WNW,288,0.0,5.0,72,0.00,,,0.00,meteohub,2013-02-04 08:40:00,
2013-02-04 03:45:00,19.8,12.2,29.97,WNW,300,1.0,4.0,72,0.00,,,0.00,meteohub,2013-02-04 08:45:00,
2013-02-04 03:50:00,19.8,12.2,29.97,WNW,300,1.0,3.0,72,0.00,,,0.00,meteohub,2013-02-04 08:50:00,
2013-02-04 03:55:00,19.6,12.0,29.97,WNW,296,2.0,3.0,72,0.00,,,0.00,meteohub,2013-02-04 08:55:00,
2013-02-04 04:00:00,19.6,12.0,29.97,WNW,292,2.0,4.0,72,0.00,,,0.00,meteohub,2013-02-04 09:00:00,
2013-02-04 04:05:00,19.4,11.8,29.97,NW,307,4.0,4.0,72,0.00,,,0.00,meteohub,2013-02-04 09:05:00,
2013-02-04 04:10:00,19.2,12.0,29.97,WNW,302,2.0,4.0,73,0.00,,,0.00,meteohub,2013-02-04 09:10:00,
2013-02-04 04:15:00,19.2,12.0,29.97,WNW,295,3.0,5.0,73,0.00,,,0.00,meteohub,2013-02-04 09:15:00,
2013-02-04 04:20:00,19.0,11.8,29.97,NW,321,6.0,6.0,73,0.00,,,0.00,meteohub,2013-02-04 09:20:00,
2013-02-04 04:25:00,19.0,11.8,29.98,WNW,294,3.0,7.0,73,0.00,,,0.00,meteohub,2013-02-04 09:25:00,
2013-02-04 04:30:00,19.0,11.8,29.98,WNW,291,2.0,7.0,73,0.00,,,0.00,meteohub,2013-02-04 09:30:00,
2013-02-04 04:35:00,18.9,11.7,29.98,WNW,291,2.0,7.0,73,0.00,,,0.00,meteohub,2013-02-04 09:35:00,
2013-02-04 04:40:00,18.9,11.7,29.98,WNW,291,1.0,3.0,73,0.00,,,0.00,meteohub,2013-02-04 09:40:00,
2013-02-04 04:45:00,18.7,11.8,29.98,WNW,291,0.0,3.0,74,0.00,,,0.00,meteohub,2013-02-04 09:45:00,
2013-02-04 04:50:00,18.3,11.7,29.98,WNW,291,0.0,4.0,75,0.00,,,0.00,meteohub,2013-02-04 09:50:00,
2013-02-04 04:55:00,18.3,11.7,29.98,WNW,290,1.0,4.0,75,0.00,,,0.00,meteohub,2013-02-04 09:55:00,
2013-02-04 05:00:00,18.1,11.5,29.98,WNW,290,3.0,4.0,75,0.00,,,0.00,meteohub,2013-02-04 10:00:00,
2013-02-04 05:05:00,18.3,11.7,29.98,WNW,290,1.0,3.0,75,0.00,,,0.00,meteohub,2013-02-04 10:05:00,
2013-02-04 05:10:00,18.3,11.7,29.99,WNW,290,2.0,3.0,75,0.00,,,0.00,meteohub,2013-02-04 10:10:00,
2013-02-04 05:15:00,18.3,11.7,29.99,WNW,290,1.0,4.0,75,0.00,,,0.00,meteohub,2013-02-04 10:15:00,
2013-02-04 05:20:00,18.5,12.2,29.98,WNW,302,3.0,4.0,76,0.00,,,0.00,meteohub,2013-02-04 10:20:00,
2013-02-04 05:25:00,18.5,12.2,29.99,WNW,302,2.0,4.0,76,0.00,,,0.00,meteohub,2013-02-04 10:25:00,
2013-02-04 05:30:00,18.7,12.4,29.99,WNW,302,2.0,3.0,76,0.00,,,0.00,meteohub,2013-02-04 10:30:00,
2013-02-04 05:36:00,18.7,12.4,29.99,WNW,299,1.0,4.0,76,0.00,,,0.00,meteohub,2013-02-04 10:36:00,
2013-02-04 05:41:00,18.5,12.2,29.99,WNW,299,1.0,4.0,76,0.00,,,0.00,meteohub,2013-02-04 10:41:00,
2013-02-04 05:46:00,18.5,12.2,29.99,WNW,299,0.0,4.0,76,0.00,,,0.00,meteohub,2013-02-04 10:46:00,
2013-02-04 05:51:00,18.5,12.2,29.99,WNW,298,0.0,3.0,76,0.00,,,0.00,meteohub,2013-02-04 10:51:00,
2013-02-04 05:56:00,18.5,12.6,29.99,WNW,298,1.0,3.0,77,0.00,,,0.00,meteohub,2013-02-04 10:56:00,
2013-02-04 06:01:00,18.5,12.2,29.99,WNW,298,1.0,3.0,76,0.00,,,0.00,meteohub,2013-02-04 11:01:00,
2013-02-04 06:06:00,18.5,12.2,29.99,WNW,298,0.0,3.0,76,0.00,,,0.00,meteohub,2013-02-04 11:06:00,
2013-02-04 06:11:00,18.3,12.0,30.00,WNW,295,2.0,3.0,76,0.00,,,0.00,meteohub,2013-02-04 11:11:00,
2013-02-04 06:16:00,18.3,12.0,30.00,WNW,295,2.0,4.0,76,0.00,,,0.00,meteohub,2013-02-04 11:16:00,
2013-02-04 06:21:00,18.5,12.2,30.00,WNW,295,2.0,4.0,76,0.00,,,0.00,meteohub,2013-02-04 11:21:00,
2013-02-04 06:26:00,18.5,12.2,30.00,WNW,295,2.0,4.0,76,0.00,,,0.00,meteohub,2013-02-04 11:26:00,
2013-02-04 06:31:00,18.3,12.0,30.00,WNW,295,1.0,3.0,76,0.00,,,0.00,meteohub,2013-02-04 11:31:00,
2013-02-04 06:36:00,18.3,12.0,30.00,WNW,295,0.0,3.0,76,0.00,,,0.00,meteohub,2013-02-04 11:36:00,
2013-02-04 06:41:00,18.3,12.0,30.01,WNW,295,1.0,3.0,76,0.00,,,0.00,meteohub,2013-02-04 11:41:00,
2013-02-04 06:46:00,18.1,11.8,30.01,NW,306,2.0,4.0,76,0.00,,,0.00,meteohub,2013-02-04 11:46:00,
2013-02-04 06:51:00,18.3,12.0,30.02,West,268,0.0,4.0,76,0.00,,,0.00,meteohub,2013-02-04 11:51:00,
2013-02-04 06:56:00,18.3,11.7,30.02,West,268,1.0,4.0,75,0.00,,,0.00,meteohub,2013-02-04 11:56:00,
2013-02-04 07:01:00,18.3,11.7,30.02,West,268,2.0,3.0,75,0.00,,,0.00,meteohub,2013-02-04 12:01:00,
2013-02-04 07:06:00,18.3,11.7,30.02,West,267,1.0,5.0,75,0.00,,,0.00,meteohub,2013-02-04 12:06:00,
2013-02-04 07:11:00,18.3,11.7,30.02,West,268,1.0,5.0,75,0.00,,,0.00,meteohub,2013-02-04 12:11:00,
2013-02-04 07:16:00,18.3,11.7,30.02,West,268,1.0,5.0,75,0.00,,,0.00,meteohub,2013-02-04 12:16:00,
2013-02-04 07:21:00,18.1,11.5,30.02,West,267,0.0,3.0,75,0.00,,,0.00,meteohub,2013-02-04 12:21:00,
2013-02-04 07:26:00,18.0,11.3,30.02,West,267,0.0,3.0,75,0.00,,,0.00,meteohub,2013-02-04 12:26:00,
2013-02-04 07:31:00,18.1,11.5,30.03,West,267,2.0,3.0,75,0.00,,,0.00,meteohub,2013-02-04 12:31:00,
2013-02-04 07:36:00,18.3,11.7,30.04,West,260,4.0,4.0,75,0.00,,,0.00,meteohub,2013-02-04 12:36:00,
2013-02-04 07:41:00,18.7,11.8,30.04,West,281,4.0,5.0,74,0.00,,,0.00,meteohub,2013-02-04 12:41:00,
2013-02-04 07:46:00,18.9,11.7,30.04,WNW,283,2.0,5.0,73,0.00,,,0.00,meteohub,2013-02-04 12:46:00,
2013-02-04 07:51:00,19.0,11.5,30.05,West,270,3.0,5.0,72,0.00,,,0.00,meteohub,2013-02-04 12:51:00,
2013-02-04 07:56:00,19.2,11.7,30.05,West,266,2.0,5.0,72,0.00,,,0.00,meteohub,2013-02-04 12:56:00,
2013-02-04 08:01:00,19.4,11.5,30.05,WNW,299,4.0,5.0,71,0.00,,,0.00,meteohub,2013-02-04 13:01:00,
2013-02-04 08:06:00,19.8,11.8,30.05,WNW,283,2.0,6.0,71,0.00,,,0.00,meteohub,2013-02-04 13:06:00,
2013-02-04 08:11:00,19.9,12.0,30.05,NW,304,2.0,6.0,71,0.00,,,0.00,meteohub,2013-02-04 13:11:00,
2013-02-04 08:16:00,19.9,12.0,30.05,WNW,296,3.0,6.0,71,0.00,,,0.00,meteohub,2013-02-04 13:16:00,
2013-02-04 08:21:00,20.1,11.8,30.06,WNW,286,1.0,4.0,70,0.00,,,0.00,meteohub,2013-02-04 13:21:00,
2013-02-04 08:26:00,20.1,11.8,30.06,WNW,286,1.0,4.0,70,0.00,,,0.00,meteohub,2013-02-04 13:26:00,
2013-02-04 08:31:00,20.5,12.2,30.06,West,267,1.0,4.0,70,0.00,,,0.00,meteohub,2013-02-04 13:31:00,
2013-02-04 08:36:00,20.7,12.4,30.06,West,259,0.0,5.0,70,0.00,,,0.00,meteohub,2013-02-04 13:36:00,
2013-02-04 08:41:00,21.0,12.7,30.06,West,268,4.0,5.0,70,0.00,,,0.00,meteohub,2013-02-04 13:41:00,
2013-02-04 08:46:00,21.0,12.4,30.06,West,263,2.0,6.0,69,0.00,,,0.00,meteohub,2013-02-04 13:46:00,
2013-02-04 08:51:00,21.4,12.7,30.06,SW,221,3.0,6.0,69,0.00,,,0.00,meteohub,2013-02-04 13:51:00,
2013-02-04 08:56:00,21.2,12.4,30.06,SW,227,0.0,6.0,68,0.00,,,0.00,meteohub,2013-02-04 13:56:00,
2013-02-04 09:01:00,21.0,12.4,30.06,SW,232,3.0,5.0,69,0.00,,,0.00,meteohub,2013-02-04 14:01:00,
2013-02-04 09:06:00,21.0,12.4,30.06,SW,223,0.0,5.0,69,0.00,,,0.00,meteohub,2013-02-04 14:06:00,
2013-02-04 09:11:00,21.0,12.4,30.07,SW,233,1.0,5.0,69,0.00,,,0.00,meteohub,2013-02-04 14:11:00,
2013-02-04 09:17:00,21.6,13.3,30.06,SW,233,3.0,5.0,70,0.00,,,0.00,meteohub,2013-02-04 14:17:00,
2013-02-04 09:22:00,21.9,13.6,30.06,West,259,0.0,5.0,70,0.00,,,0.00,meteohub,2013-02-04 14:22:00,
2013-02-04 09:27:00,22.3,12.9,30.06,WSW,253,2.0,9.0,67,0.00,,,0.00,meteohub,2013-02-04 14:27:00,
2013-02-04 09:32:00,22.5,13.1,30.06,West,268,5.0,9.0,67,0.00,,,0.00,meteohub,2013-02-04 14:32:00,
2013-02-04 09:37:00,22.6,12.4,30.06,West,270,4.0,9.0,64,0.00,,,0.00,meteohub,2013-02-04 14:37:00,
2013-02-04 09:42:00,22.6,12.7,30.06,West,277,6.0,10.0,65,0.00,,,0.00,meteohub,2013-02-04 14:42:00,
2013-02-04 09:47:00,22.8,12.7,30.06,West,281,2.0,10.0,65,0.00,,,0.00,meteohub,2013-02-04 14:47:00,
2013-02-04 09:52:00,23.5,14.2,30.06,WNW,298,3.0,10.0,67,0.00,,,0.00,meteohub,2013-02-04 14:52:00,
2013-02-04 09:57:00,23.7,13.3,30.06,WNW,290,3.0,8.0,64,0.00,,,0.00,meteohub,2013-02-04 14:57:00,
2013-02-04 10:02:00,23.5,12.7,30.06,West,281,3.0,8.0,63,0.00,,,0.00,meteohub,2013-02-04 15:02:00,
2013-02-04 10:07:00,23.4,12.6,30.06,WNW,302,6.0,9.0,63,0.00,,,0.00,meteohub,2013-02-04 15:07:00,
2013-02-04 10:12:00,23.2,12.4,30.06,West,264,3.0,9.0,63,0.00,,,0.00,meteohub,2013-02-04 15:12:00,
2013-02-04 10:17:00,23.2,12.0,30.06,West,269,8.0,9.0,62,0.00,,,0.00,meteohub,2013-02-04 15:17:00,
2013-02-04 10:22:00,23.0,11.8,30.06,WSW,250,6.0,11.0,62,0.00,,,0.00,meteohub,2013-02-04 15:22:00,
2013-02-04 10:27:00,23.2,14.5,30.07,West,276,4.0,11.0,69,0.00,,,0.00,meteohub,2013-02-04 15:27:00,
2013-02-04 10:32:00,23.4,13.3,30.06,WNW,285,5.0,11.0,65,0.00,,,0.00,meteohub,2013-02-04 15:32:00,
2013-02-04 10:37:00,23.4,12.6,30.07,West,260,8.0,11.0,63,0.00,,,0.00,meteohub,2013-02-04 15:37:00,
2013-02-04 10:42:00,23.4,12.9,30.07,West,274,6.0,11.0,64,0.00,,,0.00,meteohub,2013-02-04 15:42:00,
2013-02-04 10:47:00,23.2,12.7,30.07,WSW,256,3.0,10.0,64,0.00,,,0.00,meteohub,2013-02-04 15:47:00,
2013-02-04 10:52:00,23.4,12.9,30.07,West,280,2.0,13.0,64,0.00,,,0.00,meteohub,2013-02-04 15:52:00,
2013-02-04 10:57:00,23.5,13.5,30.07,West,263,6.0,13.0,65,0.00,,,0.00,meteohub,2013-02-04 15:57:00,
2013-02-04 11:02:00,23.5,14.2,30.07,WNW,296,1.0,13.0,67,0.00,,,0.00,meteohub,2013-02-04 16:02:00,
2013-02-04 11:07:00,23.7,13.6,30.07,West,276,4.0,9.0,65,0.00,,,0.00,meteohub,2013-02-04 16:07:00,
2013-02-04 11:12:00,23.4,13.3,30.06,WSW,242,1.0,10.0,65,0.00,,,0.00,meteohub,2013-02-04 16:12:00,
2013-02-04 11:17:00,23.4,13.6,30.06,WSW,255,3.0,10.0,66,0.00,,,0.00,meteohub,2013-02-04 16:17:00,
2013-02-04 11:22:00,23.7,14.0,30.06,WNW,288,3.0,10.0,66,0.00,,,0.00,meteohub,2013-02-04 16:22:00,
2013-02-04 11:27:00,24.3,14.5,30.06,West,272,4.0,9.0,66,0.00,,,0.00,meteohub,2013-02-04 16:27:00,
2013-02-04 11:32:00,24.4,14.7,30.06,West,265,7.0,9.0,66,0.00,,,0.00,meteohub,2013-02-04 16:32:00,
2013-02-04 11:37:00,24.4,14.7,30.05,WSW,254,5.0,10.0,66,0.00,,,0.00,meteohub,2013-02-04 16:37:00,
2013-02-04 11:42:00,24.3,14.2,30.05,WSW,242,4.0,10.0,65,0.00,,,0.00,meteohub,2013-02-04 16:42:00,
2013-02-04 11:47:00,24.3,15.3,30.05,WSW,249,2.0,10.0,68,0.00,,,0.00,meteohub,2013-02-04 16:47:00,
2013-02-04 11:52:00,24.4,15.1,30.05,SW,221,4.0,10.0,67,0.00,,,0.00,meteohub,2013-02-04 16:52:00,
2013-02-04 11:57:00,24.4,14.7,30.05,WSW,257,2.0,10.0,66,0.00,,,0.00,meteohub,2013-02-04 16:57:00,
2013-02-04 12:02:00,24.6,15.3,30.04,WSW,253,5.0,8.0,67,0.00,,,0.00,meteohub,2013-02-04 17:02:00,
2013-02-04 12:07:00,25.2,14.7,30.04,WNW,288,4.0,9.0,64,0.00,,,0.00,meteohub,2013-02-04 17:07:00,
2013-02-04 12:12:00,25.3,14.9,30.04,WNW,288,2.0,10.0,64,0.00,,,0.00,meteohub,2013-02-04 17:12:00,
2013-02-04 12:17:00,25.2,14.0,30.04,West,263,6.0,10.0,62,0.00,,,0.00,meteohub,2013-02-04 17:17:00,
2013-02-04 12:22:00,25.2,13.6,30.03,WSW,237,9.0,12.0,61,0.00,,,0.00,meteohub,2013-02-04 17:22:00,
2013-02-04 12:27:00,25.3,14.2,30.03,WSW,253,5.0,12.0,62,0.00,,,0.00,meteohub,2013-02-04 17:27:00,
2013-02-04 12:32:00,25.9,14.7,30.03,West,273,3.0,12.0,62,0.00,,,0.00,meteohub,2013-02-04 17:32:00,
2013-02-04 12:37:00,26.2,15.1,30.02,SW,226,3.0,10.0,62,0.00,,,0.00,meteohub,2013-02-04 17:37:00,
2013-02-04 12:42:00,26.4,15.1,30.01,West,277,1.0,10.0,62,0.00,,,0.00,meteohub,2013-02-04 17:42:00,
2013-02-04 12:47:00,26.8,15.1,30.01,West,280,5.0,10.0,61,0.00,,,0.00,meteohub,2013-02-04 17:47:00,
2013-02-04 12:52:00,26.6,14.5,30.01,SW,217,1.0,10.0,60,0.00,,,0.00,meteohub,2013-02-04 17:52:00,
2013-02-04 12:57:00,26.8,15.1,30.01,WSW,248,5.0,8.0,61,0.00,,,0.00,meteohub,2013-02-04 17:57:00,
2013-02-04 13:02:00,26.8,14.4,30.01,SW,230,3.0,8.0,59,0.00,,,0.00,meteohub,2013-02-04 18:02:00,
2013-02-04 13:07:00,26.4,14.7,30.01,West,281,5.0,8.0,61,0.00,,,0.00,meteohub,2013-02-04 18:07:00,
2013-02-04 13:12:00,26.8,15.4,30.01,NW,310,1.0,8.0,62,0.00,,,0.00,meteohub,2013-02-04 18:12:00,
2013-02-04 13:17:00,27.1,15.4,30.00,WNW,286,3.0,8.0,61,0.00,,,0.00,meteohub,2013-02-04 18:17:00,
2013-02-04 13:22:00,27.1,14.7,30.00,West,269,3.0,7.0,59,0.00,,,0.00,meteohub,2013-02-04 18:22:00,
2013-02-04 13:27:00,27.1,15.1,30.00,WNW,286,3.0,7.0,60,0.00,,,0.00,meteohub,2013-02-04 18:27:00,
2013-02-04 13:32:00,27.3,16.0,30.00,WNW,298,3.0,7.0,62,0.00,,,0.00,meteohub,2013-02-04 18:32:00,
2013-02-04 13:37:00,27.5,15.1,30.00,SSW,203,5.0,7.0,59,0.00,,,0.00,meteohub,2013-02-04 18:37:00,
2013-02-04 13:42:00,27.0,14.5,30.00,WNW,287,4.0,10.0,59,0.00,,,0.00,meteohub,2013-02-04 18:42:00,
2013-02-04 13:47:00,27.0,14.9,29.99,WNW,283,4.0,10.0,60,0.00,,,0.00,meteohub,2013-02-04 18:47:00,
2013-02-04 13:52:00,27.0,14.9,29.99,SW,232,6.0,10.0,60,0.00,,,0.00,meteohub,2013-02-04 18:52:00,
2013-02-04 13:57:00,27.0,14.5,29.99,West,271,5.0,7.0,59,0.00,,,0.00,meteohub,2013-02-04 18:57:00,
2013-02-04 14:02:00,27.1,15.1,29.99,West,278,3.0,7.0,60,0.00,,,0.00,meteohub,2013-02-04 19:02:00,
2013-02-04 14:07:00,27.5,15.1,29.99,SW,228,4.0,9.0,59,0.00,,,0.00,meteohub,2013-02-04 19:07:00,
2013-02-04 14:12:00,27.5,15.1,29.99,WNW,295,6.0,9.0,59,0.00,,,0.00,meteohub,2013-02-04 19:12:00,
2013-02-04 14:17:00,27.5,14.7,29.99,WSW,239,4.0,9.0,58,0.00,,,0.00,meteohub,2013-02-04 19:17:00,
2013-02-04 14:22:00,27.5,16.2,29.99,SW,234,4.0,9.0,62,0.00,,,0.00,meteohub,2013-02-04 19:22:00,
2013-02-04 14:27:00,27.5,14.7,29.99,WSW,237,8.0,10.0,58,0.00,,,0.00,meteohub,2013-02-04 19:27:00,
2013-02-04 14:32:00,27.7,15.3,29.99,WSW,240,5.0,10.0,59,0.00,,,0.00,meteohub,2013-02-04 19:32:00,
2013-02-04 14:37:00,27.3,14.5,29.99,WSW,245,4.0,10.0,58,0.00,,,0.00,meteohub,2013-02-04 19:37:00,
2013-02-04 14:42:00,27.3,14.9,29.99,West,265,3.0,10.0,59,0.00,,,0.00,meteohub,2013-02-04 19:42:00,
2013-02-04 14:47:00,27.9,15.4,29.98,WNW,284,5.0,9.0,59,0.00,,,0.00,meteohub,2013-02-04 19:47:00,
2013-02-04 14:52:00,28.2,16.2,29.98,West,269,3.0,9.0,60,0.00,,,0.00,meteohub,2013-02-04 19:52:00,
2013-02-04 14:57:00,28.6,16.2,29.98,West,271,5.0,8.0,59,0.00,,,0.00,meteohub,2013-02-04 19:57:00,
2013-02-04 15:02:00,28.8,16.2,29.98,West,261,2.0,7.0,59,0.00,,,0.00,meteohub,2013-02-04 20:02:00,
2013-02-04 15:07:00,29.1,16.5,29.98,West,279,4.0,7.0,59,0.00,,,0.00,meteohub,2013-02-04 20:07:00,
2013-02-04 15:12:00,29.1,16.2,29.98,West,271,5.0,10.0,58,0.00,,,0.00,meteohub,2013-02-04 20:12:00,
2013-02-04 15:17:00,28.6,16.2,29.98,West,261,4.0,10.0,59,0.00,,,0.00,meteohub,2013-02-04 20:17:00,
2013-02-04 15:22:00,28.8,17.1,29.98,West,267,3.0,10.0,61,0.00,,,0.00,meteohub,2013-02-04 20:22:00,
2013-02-04 15:27:00,28.9,17.2,29.98,West,260,2.0,8.0,61,0.00,,,0.00,meteohub,2013-02-04 20:27:00,
2013-02-04 15:32:00,29.1,16.9,29.98,West,275,4.0,7.0,60,0.00,,,0.00,meteohub,2013-02-04 20:32:00,
2013-02-04 15:37:00,28.9,16.3,29.99,West,261,2.0,7.0,59,0.00,,,0.00,meteohub,2013-02-04 20:37:00,
2013-02-04 15:42:00,28.6,16.5,29.98,West,273,1.0,8.0,60,0.00,,,0.00,meteohub,2013-02-04 20:42:00,
2013-02-04 15:47:00,28.6,16.9,29.99,West,272,2.0,8.0,61,0.00,,,0.00,meteohub,2013-02-04 20:47:00,
2013-02-04 15:52:00,28.8,17.1,29.99,West,273,4.0,8.0,61,0.00,,,0.00,meteohub,2013-02-04 20:52:00,
2013-02-04 15:57:00,28.9,17.2,29.99,West,277,4.0,7.0,61,0.00,,,0.00,meteohub,2013-02-04 20:57:00,
2013-02-04 16:02:00,28.6,16.9,29.99,West,265,3.0,9.0,61,0.00,,,0.00,meteohub,2013-02-04 21:02:00,
2013-02-04 16:07:00,28.0,16.7,29.99,West,272,3.0,9.0,62,0.00,,,0.00,meteohub,2013-02-04 21:07:00,
2013-02-04 16:12:00,27.9,16.5,29.99,West,273,0.0,9.0,62,0.00,,,0.00,meteohub,2013-02-04 21:12:00,
2013-02-04 16:17:00,27.9,16.5,29.98,West,273,0.0,6.0,62,0.00,,,0.00,meteohub,2013-02-04 21:17:00,
2013-02-04 16:22:00,28.2,17.2,29.98,West,272,0.0,4.0,63,0.00,,,0.00,meteohub,2013-02-04 21:22:00,
2013-02-04 16:27:00,28.4,17.1,29.98,WSW,254,0.0,3.0,62,0.00,,,0.00,meteohub,2013-02-04 21:27:00,
2013-02-04 16:32:00,28.6,17.2,29.98,WSW,254,0.0,3.0,62,0.00,,,0.00,meteohub,2013-02-04 21:32:00,
2013-02-04 16:37:00,28.4,16.7,29.98,WSW,254,0.0,3.0,61,0.00,,,0.00,meteohub,2013-02-04 21:37:00,
2013-02-04 16:42:00,28.2,16.5,29.98,WSW,254,0.0,2.0,61,0.00,,,0.00,meteohub,2013-02-04 21:42:00,
2013-02-04 16:47:00,28.0,16.7,29.98,WSW,254,0.0,2.0,62,0.00,,,0.00,meteohub,2013-02-04 21:47:00,
2013-02-04 16:52:00,27.9,16.9,29.98,WNW,283,0.0,3.0,63,0.00,,,0.00,meteohub,2013-02-04 21:52:00,
2013-02-04 16:57:00,27.9,16.9,29.97,WNW,283,1.0,3.0,63,0.00,,,0.00,meteohub,2013-02-04 21:57:00,
2013-02-04 17:02:00,27.7,17.4,29.97,WNW,283,1.0,3.0,65,0.00,,,0.00,meteohub,2013-02-04 22:02:00,
2013-02-04 17:07:00,27.5,17.6,29.97,WNW,283,1.0,3.0,66,0.00,,,0.00,meteohub,2013-02-04 22:07:00,
2013-02-04 17:12:00,27.3,17.8,29.98,WNW,283,0.0,2.0,67,0.00,,,0.00,meteohub,2013-02-04 22:12:00,
2013-02-04 17:17:00,27.1,17.6,29.98,WNW,283,1.0,2.0,67,0.00,,,0.00,meteohub,2013-02-04 22:17:00,
2013-02-04 17:22:00,27.1,17.6,29.98,WNW,283,0.0,2.0,67,0.00,,,0.00,meteohub,2013-02-04 22:22:00,
2013-02-04 17:27:00,26.8,17.2,29.98,WNW,283,0.0,2.0,67,0.00,,,0.00,meteohub,2013-02-04 22:27:00,
2013-02-04 17:32:00,26.4,17.2,29.98,WNW,283,0.0,2.0,68,0.00,,,0.00,meteohub,2013-02-04 22:32:00,
2013-02-04 17:37:00,26.2,17.1,29.98,WNW,283,0.0,1.0,68,0.00,,,0.00,meteohub,2013-02-04 22:37:00,
2013-02-04 17:42:00,26.1,16.9,29.98,WNW,283,0.0,0.0,68,0.00,,,0.00,meteohub,2013-02-04 22:42:00,
2013-02-04 17:47:00,25.9,17.1,29.97,WNW,283,0.0,0.0,69,0.00,,,0.00,meteohub,2013-02-04 22:47:00,
2013-02-04 17:52:00,25.5,17.1,29.98,WNW,283,0.0,0.0,70,0.00,,,0.00,meteohub,2013-02-04 22:52:00,
2013-02-04 17:57:00,25.3,16.9,29.98,WNW,283,0.0,0.0,70,0.00,,,0.00,meteohub,2013-02-04 22:57:00,
2013-02-04 18:02:00,25.2,16.7,29.97,WNW,283,0.0,0.0,70,0.00,,,0.00,meteohub,2013-02-04 23:02:00,
2013-02-04 18:07:00,25.0,16.9,29.98,WNW,283,0.0,0.0,71,0.00,,,0.00,meteohub,2013-02-04 23:07:00,
2013-02-04 18:12:00,24.6,16.9,29.98,WNW,283,0.0,0.0,72,0.00,,,0.00,meteohub,2013-02-04 23:12:00,
2013-02-04 18:17:00,24.4,16.7,29.97,WNW,283,0.0,0.0,72,0.00,,,0.00,meteohub,2013-02-04 23:17:00,
2013-02-04 18:22:00,24.3,16.5,29.98,WNW,283,0.0,0.0,72,0.00,,,0.00,meteohub,2013-02-04 23:22:00,
2013-02-04 18:27:00,23.9,16.5,29.98,WNW,283,0.0,0.0,73,0.00,,,0.00,meteohub,2013-02-04 23:27:00,
2013-02-04 18:32:00,23.7,16.3,29.98,WNW,283,0.0,0.0,73,0.00,,,0.00,meteohub,2013-02-04 23:32:00,
2013-02-04 18:37:00,23.4,16.3,29.98,WNW,283,0.0,0.0,74,0.00,,,0.00,meteohub,2013-02-04 23:37:00,
2013-02-04 18:42:00,23.0,16.0,29.98,WNW,283,0.0,0.0,74,0.00,,,0.00,meteohub,2013-02-04 23:42:00,
2013-02-04 18:47:00,22.8,16.2,29.97,WNW,283,0.0,0.0,75,0.00,,,0.00,meteohub,2013-02-04 23:47:00,
2013-02-04 18:52:00,22.6,16.2,29.98,WNW,283,0.0,0.0,76,0.00,,,0.00,meteohub,2013-02-04 23:52:00,
2013-02-04 18:57:00,22.5,16.3,29.98,WNW,283,0.0,0.0,77,0.00,,,0.00,meteohub,2013-02-04 23:57:00,
2013-02-04 19:02:00,22.3,16.2,29.98,WNW,283,0.0,0.0,77,0.00,,,0.00,meteohub,2013-02-05 00:02:00,
2013-02-04 19:07:00,22.1,16.3,29.98,WNW,283,0.0,0.0,78,0.00,,,0.00,meteohub,2013-02-05 00:07:00,
2013-02-04 19:12:00,21.9,16.2,29.97,WNW,283,0.0,0.0,78,0.00,,,0.00,meteohub,2013-02-05 00:12:00,
2013-02-04 19:17:00,21.9,16.2,29.97,WNW,283,0.0,0.0,78,0.00,,,0.00,meteohub,2013-02-05 00:17:00,
2013-02-04 19:22:00,21.7,16.2,29.97,WNW,283,0.0,0.0,79,0.00,,,0.00,meteohub,2013-02-05 00:22:00,
2013-02-04 19:27:00,21.7,16.2,29.97,WNW,283,0.0,0.0,79,0.00,,,0.00,meteohub,2013-02-05 00:27:00,
2013-02-04 19:32:00,21.7,16.2,29.97,WNW,283,0.0,0.0,79,0.00,,,0.00,meteohub,2013-02-05 00:32:00,
2013-02-04 19:37:00,21.7,16.2,29.97,WNW,283,0.0,0.0,79,0.00,,,0.00,meteohub,2013-02-05 00:37:00,
2013-02-04 19:42:00,21.7,16.5,29.97,WNW,283,0.0,0.0,80,0.00,,,0.00,meteohub,2013-02-05 00:42:00,
2013-02-04 19:47:00,21.7,16.9,29.97,WNW,283,0.0,0.0,81,0.00,,,0.00,meteohub,2013-02-05 00:47:00,
2013-02-04 19:52:00,21.9,17.1,29.97,WNW,283,0.0,0.0,81,0.00,,,0.00,meteohub,2013-02-05 00:52:00,
2013-02-04 19:57:00,21.9,17.2,29.97,WNW,283,0.0,0.0,82,0.00,,,0.00,meteohub,2013-02-05 00:57:00,
2013-02-04 20:02:00,22.1,17.4,29.97,WNW,283,0.0,0.0,82,0.00,,,0.00,meteohub,2013-02-05 01:02:00,
2013-02-04 20:07:00,22.3,17.6,29.97,WNW,283,0.0,0.0,82,0.00,,,0.00,meteohub,2013-02-05 01:07:00,
2013-02-04 20:12:00,22.3,17.6,29.97,WNW,283,0.0,0.0,82,0.00,,,0.00,meteohub,2013-02-05 01:12:00,
2013-02-04 20:17:00,22.5,18.1,29.97,WNW,283,0.0,0.0,83,0.00,,,0.00,meteohub,2013-02-05 01:17:00,
2013-02-04 20:22:00,22.5,18.1,29.97,WNW,283,0.0,0.0,83,0.00,,,0.00,meteohub,2013-02-05 01:22:00,
2013-02-04 20:27:00,22.5,18.1,29.97,WNW,283,0.0,0.0,83,0.00,,,0.00,meteohub,2013-02-05 01:27:00,
2013-02-04 20:32:00,22.6,18.3,29.97,WNW,283,0.0,0.0,83,0.00,,,0.00,meteohub,2013-02-05 01:32:00,
2013-02-04 20:37:00,22.6,18.5,29.97,WNW,283,0.0,0.0,84,0.00,,,0.00,meteohub,2013-02-05 01:37:00,
2013-02-04 20:42:00,22.8,18.7,29.97,WNW,283,0.0,0.0,84,0.00,,,0.00,meteohub,2013-02-05 01:42:00,
2013-02-04 20:47:00,22.8,18.7,29.97,WNW,283,0.0,0.0,84,0.00,,,0.00,meteohub,2013-02-05 01:47:00,
2013-02-04 20:52:00,23.0,18.9,29.97,WNW,283,0.0,0.0,84,0.00,,,0.00,meteohub,2013-02-05 01:52:00,
2013-02-04 20:57:00,23.2,19.0,29.97,WNW,283,0.0,0.0,84,0.00,,,0.00,meteohub,2013-02-05 01:57:00,
2013-02-04 21:02:00,23.2,19.0,29.98,WNW,283,0.0,0.0,84,0.00,,,0.00,meteohub,2013-02-05 02:02:00,
2013-02-04 21:07:00,23.4,19.2,29.98,WNW,283,0.0,0.0,84,0.00,,,0.00,meteohub,2013-02-05 02:07:00,
2013-02-04 21:12:00,23.5,19.8,29.97,WNW,283,0.0,0.0,85,0.00,,,0.00,meteohub,2013-02-05 02:12:00,
2013-02-04 21:18:00,23.7,19.9,29.97,WNW,283,0.0,0.0,85,0.00,,,0.00,meteohub,2013-02-05 02:18:00,
2013-02-04 21:23:00,24.1,20.3,29.98,WNW,283,0.0,0.0,85,0.00,,,0.00,meteohub,2013-02-05 02:23:00,
2013-02-04 21:28:00,24.3,20.5,29.97,WNW,283,0.0,0.0,85,0.00,,,0.00,meteohub,2013-02-05 02:28:00,
2013-02-04 21:33:00,24.3,20.5,29.98,WNW,283,0.0,0.0,85,0.00,,,0.00,meteohub,2013-02-05 02:33:00,
2013-02-04 21:38:00,24.4,20.7,29.97,WNW,283,0.0,0.0,85,0.00,,,0.00,meteohub,2013-02-05 02:38:00,
2013-02-04 21:43:00,24.4,20.7,29.97,WNW,283,0.0,0.0,85,0.00,,,0.00,meteohub,2013-02-05 02:43:00,
2013-02-04 21:48:00,24.6,20.8,29.97,WNW,283,0.0,0.0,85,0.00,,,0.00,meteohub,2013-02-05 02:48:00,
2013-02-04 21:53:00,24.6,20.8,29.97,WNW,283,0.0,0.0,85,0.00,,,0.00,meteohub,2013-02-05 02:53:00,
2013-02-04 21:58:00,24.6,20.8,29.97,WNW,283,0.0,0.0,85,0.00,,,0.00,meteohub,2013-02-05 02:58:00,
2013-02-04 22:03:00,24.8,21.0,29.97,WNW,283,0.0,0.0,85,0.00,,,0.00,meteohub,2013-02-05 03:03:00,
2013-02-04 22:08:00,24.6,20.8,29.97,WNW,283,0.0,0.0,85,0.00,,,0.00,meteohub,2013-02-05 03:08:00,
2013-02-04 22:13:00,24.8,20.7,29.97,WNW,283,0.0,0.0,84,0.00,,,0.00,meteohub,2013-02-05 03:13:00,
2013-02-04 22:18:00,25.0,20.8,29.97,WNW,283,0.0,0.0,84,0.00,,,0.00,meteohub,2013-02-05 03:18:00,
2013-02-04 22:23:00,25.0,20.8,29.96,WNW,283,0.0,0.0,84,0.00,,,0.00,meteohub,2013-02-05 03:23:00,
2013-02-04 22:28:00,25.0,20.8,29.96,WNW,283,0.0,0.0,84,0.00,,,0.00,meteohub,2013-02-05 03:28:00,
2013-02-04 22:33:00,25.2,21.0,29.96,WNW,283,0.0,0.0,84,0.00,,,0.00,meteohub,2013-02-05 03:33:00,
2013-02-04 22:38:00,25.2,20.7,29.96,WNW,283,0.0,1.0,83,0.00,,,0.00,meteohub,2013-02-05 03:38:00,
2013-02-04 22:43:00,25.2,20.7,29.96,WNW,283,0.0,1.0,83,0.00,,,0.00,meteohub,2013-02-05 03:43:00,
2013-02-04 22:48:00,25.3,20.8,29.96,WNW,283,0.0,1.0,83,0.00,,,0.00,meteohub,2013-02-05 03:48:00,
2013-02-04 22:53:00,25.3,20.8,29.95,WNW,283,0.0,1.0,83,0.00,,,0.00,meteohub,2013-02-05 03:53:00,
2013-02-04 22:58:00,25.3,20.8,29.95,WNW,283,0.0,1.0,83,0.00,,,0.00,meteohub,2013-02-05 03:58:00,
2013-02-04 23:03:00,25.3,20.8,29.95,WNW,283,0.0,0.0,83,0.00,,,0.00,meteohub,2013-02-05 04:03:00,
2013-02-04 23:08:00,25.3,20.8,29.95,WNW,283,0.0,0.0,83,0.00,,,0.00,meteohub,2013-02-05 04:08:00,
2013-02-04 23:13:00,25.3,20.8,29.94,WNW,283,0.0,0.0,83,0.00,,,0.00,meteohub,2013-02-05 04:13:00,
2013-02-04 23:18:00,25.3,20.8,29.94,WNW,283,0.0,0.0,83,0.00,,,0.00,meteohub,2013-02-05 04:18:00,
2013-02-04 23:23:00,25.3,20.8,29.94,WNW,283,0.0,0.0,83,0.00,,,0.00,meteohub,2013-02-05 04:23:00,
2013-02-04 23:28:00,25.3,20.8,29.94,WNW,283,0.0,0.0,83,0.00,,,0.00,meteohub,2013-02-05 04:28:00,
2013-02-04 23:33:00,25.3,20.8,29.94,WNW,283,0.0,0.0,83,0.00,,,0.00,meteohub,2013-02-05 04:33:00,
2013-02-04 23:38:00,25.3,20.8,29.93,WNW,283,0.0,0.0,83,0.00,,,0.00,meteohub,2013-02-05 04:38:00,
2013-02-04 23:43:00,25.3,21.2,29.93,WNW,283,0.0,0.0,84,0.00,,,0.00,meteohub,2013-02-05 04:43:00,
2013-02-04 23:48:00,25.3,21.2,29.94,WNW,283,0.0,0.0,84,0.00,,,0.00,meteohub,2013-02-05 04:48:00,
2013-02-04 23:53:00,25.3,21.2,29.93,WNW,283,0.0,0.0,84,0.00,,,0.00,meteohub,2013-02-05 04:53:00,
2013-02-04 23:58:00,25.5,21.6,29.92,WNW,283,0.0,0.0,85,0.00,,,0.00,meteohub,2013-02-05 04:58:00,